Location: Unspecified
(33.9239°N, 118.0544°W)
Time: 07:32:35
(UTC-07:00)

Cosmos 1674 - Visible Passes

Search period start: 22 May 2015 00:00
Search period end: 01 June 2015 00:00
Orbit: 507 x 532 km, 82.5° (Epoch: 21 May)

Date Brightness Start Highest point End Pass type
(mag) Time Alt. Az. Time Alt. Az. Time Alt. Az.
22 May 5.1 02:25:30 22° N 02:25:30 22° N 02:27:00 10° N visible
23 May 5.3 02:11:51 20° NNE 02:11:51 20° NNE 02:13:11 10° N visible
24 May 5.4 01:58:10 19° NNE 01:58:10 19° NNE 01:59:19 10° NNE visible
25 May 5.6 01:44:28 17° NNE 01:44:28 17° NNE 01:45:27 10° NNE visible
26 May 5.7 01:30:45 15° NNE 01:30:45 15° NNE 01:31:31 10° NNE visible
27 May 5.8 01:17:00 13° NNE 01:17:00 13° NNE 01:17:33 10° NNE visible
28 May 5.9 01:03:14 12° NNE 01:03:14 12° NNE 01:03:33 10° NNE visible
29 May 5.9 00:49:27 10° NE 00:49:27 10° NE 00:49:30 10° NE visible
29 May 5.7 02:24:32 11° NW 02:24:32 11° NW 02:24:43 10° NNW visible
30 May 5.6 02:10:44 12° NNW 02:10:44 12° NNW 02:11:07 10° NNW visible
31 May 5.6 01:56:55 13° NNW 01:56:55 13° NNW 01:57:27 10° NNW visible
